Terminal Aerodrome Forecast
Issued by NWS

Home | Current Version | Previous Version | Text Only | Print | Product List | Glossary On
Versions: 1 2 3 4 5 6 7 8 9 10 11 12 13 14 15 16 17 18 19 20 21 22 23 24 25 26 27
798
FTUS45 KPSR 191120
TAFPHX
TAF
KPHX 191120Z 1912/2012 12006KT P6SM BKN080 BKN250
      TEMPO 1914/1916 -RA BKN070
     FM191700 VRB04KT P6SM FEW050 BKN070 BKN100
     FM200100 13005KT P6SM SHRA FEW030 BKN050
     FM200500 24007KT P6SM BKN060=

USA.gov is the U.S. government's official web portal to all federal, state and local government web resources and services.